When you browse on this site, cookies collect data to enhance your experience and personalize the content and advertising you see.
Visit our Privacy Policy to learn more. By continuing to use the site, you agree to this use of cookies and data.
  • In Hungary
  • List of Countries
  • For 7 days
  • Water Temperature
  • Satellite Maps
  • Weather Map
  • News
  • Weather Widgets
  • user-avatar
    Login

    Hourly Weather Wierzbno

    Today, 24 January, Thursday

    Time Temperature Precipitation Wind Pressure Humidity
    00:00 -8°C° 0 mm 3 mps 736 mmHg 80%
    01:00 -7°C° 0 mm 2 mps 736 mmHg 82%
    02:00 -7°C° 0 mm 2 mps 736 mmHg 82%
    03:00 -7°C° 0 mm 2 mps 736 mmHg 82%
    04:00 -8°C° 0 mm 3 mps 737 mmHg 83%
    05:00 -8°C° 0 mm 3 mps 737 mmHg 82%
    06:00 -8°C° 0 mm 3 mps 737 mmHg 82%
    07:00 -7°C° 0 mm 2 mps 738 mmHg 80%
    08:00 -8°C° 0 mm 3 mps 738 mmHg 78%
    09:00 -8°C° 0 mm 3 mps 738 mmHg 76%
    10:00 -7°C° 0 mm 3 mps 739 mmHg 74%
    11:00 -7°C° 0 mm 3 mps 739 mmHg 72%
    12:00 -7°C° 0 mm 3 mps 739 mmHg 69%
    13:00 -6°C° 0 mm 3 mps 739 mmHg 67%
    14:00 -6°C° 0 mm 3 mps 739 mmHg 69%
    15:00 -7°C° 0 mm 3 mps 738 mmHg 71%
    16:00 -7°C° 0 mm 3 mps 738 mmHg 72%
    17:00 -7°C° 0 mm 3 mps 739 mmHg 74%
    18:00 -7°C° 0 mm 3 mps 739 mmHg 76%
    19:00 -7°C° 0 mm 3 mps 739 mmHg 78%
    20:00 -6°C° 0 mm 2 mps 739 mmHg 78%
    21:00 -6°C° 0 mm 2 mps 739 mmHg 79%
    22:00 -6°C° 0 mm 2 mps 740 mmHg 79%
    23:00 -6°C° 0 mm 2 mps 740 mmHg 80%

    Tomorrow, 25 January, Friday

    Time Temperature Precipitation Wind Pressure Humidity
    00:00 -6°C° 0 mm 2 mps 740 mmHg 82%
    01:00 -6°C° 0 mm 2 mps 740 mmHg 83%
    02:00 -6°C° 0.1 mm 2 mps 740 mmHg 84%
    03:00 -6°C° 0.1 mm 2 mps 740 mmHg 85%
    04:00 -6°C° 0.1 mm 2 mps 740 mmHg 86%
    05:00 -6°C° 0.1 mm 2 mps 740 mmHg 87%
    06:00 -6°C° 0.1 mm 2 mps 740 mmHg 87%
    07:00 -6°C° 0.1 mm 2 mps 740 mmHg 87%
    08:00 -6°C° 0.1 mm 2 mps 740 mmHg 86%
    09:00 -6°C° 0.1 mm 2 mps 741 mmHg 84%
    10:00 -6°C° 0.1 mm 2 mps 741 mmHg 82%
    11:00 -5°C° 0.1 mm 2 mps 741 mmHg 79%
    12:00 -5°C° 0.1 mm 2 mps 741 mmHg 76%
    13:00 -5°C° 0.1 mm 3 mps 741 mmHg 73%
    14:00 -4°C° 0 mm 2 mps 741 mmHg 74%
    15:00 -4°C° 0 mm 2 mps 741 mmHg 75%
    16:00 -4°C° 0 mm 2 mps 741 mmHg 76%
    17:00 -5°C° 0 mm 2 mps 742 mmHg 78%
    18:00 -3°C° 0 mm 1 mps 742 mmHg 80%
    19:00 -4°C° 0 mm 1 mps 742 mmHg 82%
    20:00 -4°C° 0 mm 1 mps 742 mmHg 82%
    21:00 -6°C° 0 mm 2 mps 742 mmHg 82%
    22:00 -7°C° 0 mm 2 mps 742 mmHg 81%
    23:00 -6°C° 0 mm 2 mps 741 mmHg 81%

    Day after tomorrow, 26 January, Saturday

    Time Temperature Precipitation Wind Pressure Humidity
    00:00 -7°C° 0 mm 3 mps 741 mmHg 80%
    01:00 -7°C° 0 mm 3 mps 740 mmHg 80%
    02:00 -8°C° 0 mm 4 mps 739 mmHg 80%
    03:00 -7°C° 0 mm 4 mps 739 mmHg 80%
    04:00 -7°C° 0 mm 4 mps 738 mmHg 80%
    05:00 -6°C° 0.2 mm 5 mps 737 mmHg 80%
    06:00 -5°C° 0.2 mm 5 mps 736 mmHg 81%
    07:00 -5°C° 0.2 mm 6 mps 735 mmHg 81%
    08:00 -4°C° 0.2 mm 6 mps 735 mmHg 81%
    09:00 -3°C° 0.2 mm 6 mps 734 mmHg 81%
    10:00 -2°C° 0.2 mm 6 mps 733 mmHg 81%
    11:00 -1°C° 0.5 mm 6 mps 733 mmHg 81%
    12:00 0°C° 0.5 mm 5 mps 732 mmHg 82%
    13:00 +1°C° 0.5 mm 5 mps 732 mmHg 83%
    14:00 +1°C° 0.3 mm 4 mps 732 mmHg 86%
    15:00 +1°C° 0.3 mm 3 mps 732 mmHg 89%
    16:00 +2°C° 0.3 mm 2 mps 732 mmHg 92%
    17:00 +2°C° 0 mm 2 mps 732 mmHg 92%
    18:00 +2°C° 0 mm 2 mps 732 mmHg 93%
    19:00 +1°C° 0 mm 2 mps 733 mmHg 93%
    20:00 +1°C° 0.1 mm 2 mps 733 mmHg 92%
    21:00 +1°C° 0.1 mm 2 mps 733 mmHg 92%
    22:00 +1°C° 0.1 mm 2 mps 733 mmHg 91%
    23:00 +1°C° 0.1 mm 2 mps 733 mmHg 91%

    27 January, Sunday

    Time Temperature Precipitation Wind Pressure Humidity
    00:00 +1°C° 0.1 mm 2 mps 733 mmHg 91%
    01:00 +2°C° 0.1 mm 2 mps 733 mmHg 91%
    02:00 +2°C° 0.1 mm 2 mps 732 mmHg 91%
    03:00 +2°C° 0.1 mm 2 mps 732 mmHg 90%
    04:00 +2°C° 0.1 mm 2 mps 731 mmHg 90%
    05:00 +1°C° 0.2 mm 3 mps 731 mmHg 90%
    06:00 +2°C° 0.2 mm 3 mps 731 mmHg 91%
    07:00 +2°C° 0.2 mm 3 mps 730 mmHg 91%
    08:00 +2°C° 0 mm 3 mps 730 mmHg 90%
    09:00 +3°C° 0 mm 3 mps 730 mmHg 89%
    10:00 +3°C° 0 mm 3 mps 729 mmHg 88%
    11:00 +3°C° 0 mm 4 mps 729 mmHg 87%
    12:00 +4°C° 0 mm 4 mps 728 mmHg 86%
    13:00 +4°C° 0 mm 4 mps 728 mmHg 85%
    14:00 +3°C° 0 mm 4 mps 728 mmHg 85%
    15:00 +3°C° 0 mm 4 mps 727 mmHg 85%
    16:00 +3°C° 0 mm 4 mps 727 mmHg 86%
    17:00 +2°C° 0 mm 3 mps 727 mmHg 86%
    18:00 +2°C° 0 mm 3 mps 727 mmHg 86%
    19:00 +1°C° 0 mm 3 mps 727 mmHg 86%
    20:00 +1°C° 0.1 mm 3 mps 727 mmHg 86%
    21:00 +1°C° 0.1 mm 3 mps 727 mmHg 86%
    22:00 0°C° 0.1 mm 4 mps 727 mmHg 86%
    23:00 +1°C° 0.2 mm 3 mps 726 mmHg 86%

    28 January, Monday

    Time Temperature Precipitation Wind Pressure Humidity
    00:00 +1°C° 0.2 mm 3 mps 726 mmHg 87%
    01:00 +1°C° 0.2 mm 3 mps 726 mmHg 87%
    02:00 +1°C° 0.1 mm 3 mps 726 mmHg 88%
    03:00 0°C° 0.1 mm 3 mps 726 mmHg 88%
    04:00 0°C° 0.1 mm 3 mps 725 mmHg 88%
    05:00 0°C° 0.1 mm 3 mps 726 mmHg 88%
    06:00 0°C° 0.1 mm 3 mps 726 mmHg 88%
    07:00 0°C° 0.1 mm 3 mps 726 mmHg 88%
    08:00 +1°C° 0.1 mm 3 mps 726 mmHg 87%
    09:00 +1°C° 0.1 mm 3 mps 726 mmHg 87%
    10:00 +2°C° 0.1 mm 3 mps 726 mmHg 86%
    11:00 +2°C° 0 mm 3 mps 726 mmHg 86%
    12:00 +3°C° 0 mm 3 mps 726 mmHg 85%
    13:00 +3°C° 0 mm 3 mps 726 mmHg 85%
    14:00 +3°C° 0 mm 3 mps 726 mmHg 86%
    15:00 +2°C° 0 mm 3 mps 726 mmHg 87%
    16:00 +3°C° 0 mm 2 mps 726 mmHg 88%
    17:00 +1°C° 0 mm 3 mps 726 mmHg 89%
    18:00 +1°C° 0 mm 3 mps 726 mmHg 89%
    19:00 +1°C° 0 mm 3 mps 726 mmHg 89%
    20:00 +1°C° 0 mm 3 mps 727 mmHg 89%
    21:00 +1°C° 0 mm 3 mps 728 mmHg 89%
    22:00 +1°C° 0 mm 3 mps 728 mmHg 89%
    23:00 0°C° 0.2 mm 4 mps 729 mmHg 87%

    29 January, Tuesday

    Time Temperature Precipitation Wind Pressure Humidity
    00:00 -1°C° 0.2 mm 5 mps 730 mmHg 86%
    01:00 -2°C° 0.2 mm 6 mps 730 mmHg 84%
    02:00 -3°C° 0.1 mm 6 mps 731 mmHg 84%
    03:00 -2°C° 0.1 mm 5 mps 732 mmHg 85%
    04:00 -2°C° 0.1 mm 5 mps 733 mmHg 86%
    05:00 -4°C° 0.1 mm 5 mps 734 mmHg 85%
    06:00 -4°C° 0.1 mm 5 mps 735 mmHg 83%
    07:00 -4°C° 0.1 mm 5 mps 736 mmHg 82%
    08:00 -4°C° 0 mm 5 mps 737 mmHg 80%
    09:00 -4°C° 0 mm 5 mps 737 mmHg 77%
    10:00 -5°C° 0 mm 5 mps 738 mmHg 75%
    11:00 -4°C° 0 mm 5 mps 738 mmHg 74%
    12:00 -3°C° 0 mm 4 mps 738 mmHg 73%
    13:00 -3°C° 0 mm 4 mps 738 mmHg 72%
    14:00 -2°C° 0 mm 3 mps 738 mmHg 74%
    15:00 -2°C° 0 mm 3 mps 738 mmHg 76%
    16:00 -2°C° 0 mm 2 mps 738 mmHg 78%
    17:00 -3°C° 0 mm 2 mps 738 mmHg 79%
    18:00 -3°C° 0 mm 2 mps 738 mmHg 80%
    19:00 -5°C° 0 mm 3 mps 738 mmHg 81%
    20:00 -5°C° 0 mm 3 mps 738 mmHg 80%
    21:00 -5°C° 0 mm 3 mps 738 mmHg 79%
    22:00 -5°C° 0 mm 3 mps 738 mmHg 79%
    23:00 -5°C° 0 mm 3 mps 738 mmHg 79%
    Show more